GFSFLT2_prec_cthk_120.txt.gz
RH
65 62 59 60 60 62 66 74 73 75 77 81 82 79 80 82 76 72 68 65 60 58 54 50 41 35 26
52 51 52 53 56 58 62 66 70 73 76 77 80 81 77 78 74 72 73 66 67 60 61 52 41 33 27
39 40 42 45 48 51 55 61 66 71 73 75 79 81 79 80 73 78 75 71 65 63 57 49 43 32 32
32 36 37 39 44 48 54 57 63 64 77 71 76 83 83 84 82 83 81 73 71 64 62 55 41 36 37
28 27 29 31 34 40 47 50 59 60 66 80 90 81 85 95 92 87 84 80 71 64 58 46 39 35 37
30 32 32 33 33 35 42 52 50 49 71 84 80 86 98 96 96 94 93 82 73 67 59 44 40 32 40
32 34 35 36 40 41 45 46 54 56 69 84 91 91 93 92 93 92 95 86 79 69 54 39 35 35 44
27 29 35 43 45 47 46 50 61 86 97 90 77 90 89 92 95 88 85 82 77 65 45 37 35 37 47
25 28 29 34 44 48 54 58 61 68 72 93 98 95 99 93 92 94 87 82 80 57 40 37 36 38 47
22 23 29 32 41 50 62 71 88 82 97 98 97 94 93 99 99 95 94 86 76 50 39 38 40 42 47
29 31 33 39 47 55 60 86 75 81 83 90 91 99 98 98 98 97 88 79 59 44 44 46 48 49 49
36 39 43 44 58 66 71 85 82 98 96 98 93 98 98 98 97 97 90 78 56 52 53 54 55 52 48
40 46 52 54 60 68 96 92 98 97 98 98 98 99 97 97 96 81 86 70 58 59 63 61 60 56 51
47 52 57 60 68 75 94 90 89 96 97 98 93 93 98 96 95 89 68 64 62 67 70 69 67 63 60
53 57 61 71 83 87 88 91 95 95 98 97 97 97 97 98 97 95 70 65 68 74 75 74 73 71 68
58 63 67 74 86 86 83 96 97 94 95 96 97 97 98 97 93 75 68 67 75 78 77 74 73 72 71
61 67 73 76 84 82 83 97 97 97 96 96 97 97 97 97 93 73 70 74 82 79 77 72 70 69 65

GFSFLT2_prec_cthk_123.txt.gz
RH
65 61 60 58 55 53 53 52 56 58 62 65 67 67 67 70 75 74 74 73 70 68 62 61 55 52 52
58 53 47 41 37 36 37 39 41 44 53 56 65 68 68 69 76 75 74 74 73 74 68 62 59 52 55
33 31 30 29 28 28 28 30 32 37 43 46 58 59 62 74 79 77 76 78 80 75 75 70 57 59 50
26 26 27 29 28 28 27 27 29 31 36 43 47 51 66 62 66 77 87 82 81 78 87 78 72 55 51
27 27 27 26 31 34 35 34 33 33 33 36 42 47 55 60 67 78 93 98 95 93 94 89 78 69 56
29 29 29 29 31 32 34 35 34 37 34 36 43 50 55 61 66 74 88 94 93 91 83 93 86 76 57
29 29 29 32 34 32 34 34 40 39 46 42 42 45 52 56 69 99 94 98 99 98 96 96 84 71 49
25 27 30 30 33 37 38 37 41 39 48 50 43 56 74 76 81 94 98 99 94 91 89 95 87 69 52
23 23 23 25 29 35 36 40 42 38 45 55 59 64 66 96 99 99 96 89 84 97 98 90 82 61 49
21 20 26 28 32 36 38 41 50 41 44 68 74 75 86 86 93 90 85 93 97 98 97 90 64 57 49
26 29 29 31 35 42 40 45 47 55 54 71 91 82 83 94 89 98 98 98 98 97 97 76 58 54 49
33 35 36 41 42 43 44 49 59 64 65 79 88 88 94 95 98 98 94 94 96 98 92 63 56 50 50
35 35 38 42 43 46 49 52 60 72 75 83 95 95 98 93 93 95 97 97 98 97 70 57 55 57 57
33 35 38 43 47 51 54 59 68 87 91 94 95 97 96 98 95 90 96 97 98 88 60 59 63 62 59
35 35 40 47 51 56 64 74 76 84 87 89 93 94 96 97 95 91 96 96 91 69 61 68 69 68 67
34 37 42 52 57 59 67 78 80 85 91 91 95 96 97 96 92 93 95 89 75 64 72 77 76 76 73
36 40 44 54 59 64 71 80 78 84 94 97 93 95 96 97 97 95 93 79 68 74 82 81 79 78 75

GFSFLT2_prec_cthk_126.txt.gz
RH
76 68 62 59 57 55 52 46 36 32 31 33 35 40 46 53 57 63 63 67 62 68 76 74 69 70 66
59 56 51 48 40 30 24 23 23 22 23 24 29 34 41 42 50 56 59 61 65 75 77 74 71 70 70
38 30 25 21 18 16 17 18 20 22 23 24 26 28 34 40 42 43 59 60 66 74 75 79 75 71 68
15 16 19 21 25 27 25 24 24 23 22 24 27 30 33 36 43 46 53 58 62 73 74 83 75 74 78
19 24 25 27 29 29 29 30 30 30 27 25 24 27 31 35 40 46 47 54 64 67 67 75 77 90 89
22 25 27 30 30 30 29 29 30 32 34 36 32 29 28 32 39 43 45 48 59 64 64 75 96 95 92
24 25 27 28 31 31 30 31 32 32 33 33 30 31 32 37 39 44 46 56 68 71 88 75 81 85 94
27 28 28 28 30 31 33 36 36 34 30 31 36 30 40 41 45 49 57 66 61 73 81 88 98 97 93
28 29 30 32 33 37 36 39 38 38 35 37 35 38 42 53 60 54 70 82 89 83 98 98 98 98 98
27 26 28 30 33 37 42 41 42 41 35 44 42 48 43 47 62 64 66 89 98 96 98 99 95 95 96
30 29 28 32 34 37 42 45 46 45 45 51 53 53 52 58 66 72 78 88 98 97 97 97 96 95 87
35 35 35 32 31 37 44 47 50 50 50 55 59 60 64 73 78 85 90 95 96 98 98 94 94 89 68
40 40 38 36 37 45 49 51 54 54 55 63 63 64 71 85 90 96 96 97 98 97 97 96 89 71 64
41 40 39 38 42 48 52 54 56 60 66 68 70 70 76 81 91 95 95 97 97 95 92 87 74 65 57
44 45 46 43 43 48 53 54 57 66 69 67 69 71 79 85 90 94 97 96 97 97 94 76 67 66 66
49 49 48 43 43 46 53 57 58 67 72 73 76 81 80 87 91 94 97 97 97 97 83 69 67 72 71
55 52 48 46 43 44 54 60 62 70 75 75 83 84 85 88 94 96 94 90 87 84 75 71 76 77 74

GFSFLT2_prec_cthk_132.txt.gz
RH
97 98 99 98 98 95 91 83 71 54 38 26 16 12 11 12 14 16 19 21 23 26 30 39 41 48 54
98 99 98 95 92 74 55 37 26 14 11 12 14 16 17 19 20 23 24 26 26 27 29 32 40 48 57
95 88 75 58 34 25 18 13 12 15 17 18 18 18 19 20 23 25 25 24 27 28 29 30 33 46 56
47 31 20 15 12 13 15 18 19 19 19 19 20 22 22 22 23 23 23 24 25 26 28 29 29 40 55
11 11 14 17 20 23 24 22 20 20 21 22 22 21 20 22 22 22 24 25 26 27 28 27 27 36 44
16 20 23 25 25 24 24 25 30 24 27 27 26 24 24 27 28 28 28 27 28 31 29 30 33 36 45
22 24 24 24 25 26 30 33 33 29 31 31 30 30 32 30 33 35 33 35 32 33 34 37 35 37 45
23 25 27 27 30 34 34 34 35 32 35 38 34 34 29 29 32 33 34 35 36 42 41 40 43 46 48
24 26 27 28 31 36 37 37 38 38 35 36 32 31 26 26 36 39 37 35 38 42 45 46 50 53 56
29 30 32 32 34 39 38 35 33 33 31 36 32 35 35 29 33 41 43 42 45 49 51 51 53 60 70
37 35 35 34 33 31 34 35 37 37 36 40 37 39 41 39 39 46 48 52 56 55 57 59 61 66 74
35 34 32 31 32 34 35 36 38 40 40 43 44 48 51 48 49 56 59 59 56 60 69 70 72 82 83
34 32 33 34 34 35 37 41 42 43 45 48 51 56 61 65 63 64 59 60 63 65 72 78 84 89 91
36 36 38 38 39 42 43 45 45 45 51 56 61 63 66 69 63 63 64 67 73 74 80 83 87 95 91
40 41 42 44 46 50 52 53 50 52 56 64 65 65 67 67 66 69 70 74 80 83 84 85 88 90 85
46 48 52 53 55 57 60 60 60 59 59 62 65 64 66 69 72 80 77 80 85 89 90 86 78 83 82
54 59 61 60 63 65 67 66 62 60 64 64 64 65 70 73 84 84 82 85 91 94 96 81 77 77 79

GFSFLT2_prec_cthk_135.txt.gz
RH
70 87 93 94 95 98 96 98 98 98 94 77 55 39 29 17 11 12 14 16 17 17 19 21 24 26 31
84 98 98 99 95 97 94 89 78 51 39 24 19 14 14 16 17 17 18 20 22 23 23 25 25 25 25
98 97 96 94 89 68 52 39 27 25 23 22 22 19 19 20 20 21 23 23 24 24 23 24 24 24 24
58 50 48 48 41 32 21 20 17 20 22 23 22 22 21 21 22 23 23 23 23 23 23 24 23 23 23
30 28 24 18 16 16 19 22 24 25 26 25 23 22 22 22 23 24 26 24 23 23 23 23 23 22 23
11 12 15 18 20 23 25 28 29 28 27 26 25 25 25 25 27 28 28 31 33 31 29 25 21 21 21
17 19 21 22 23 25 27 32 34 28 31 32 28 27 27 28 30 31 35 36 33 29 27 25 29 29 27
20 21 22 24 26 28 29 31 31 30 33 32 31 30 27 28 30 30 31 31 31 30 29 26 30 33 32
23 26 27 28 29 30 31 33 35 35 33 37 35 32 28 26 29 33 33 35 35 34 31 30 34 38 41
32 32 33 34 34 35 36 38 38 36 36 36 34 34 33 28 33 35 38 40 39 40 38 40 46 50 52
34 34 35 35 35 36 38 40 40 39 39 43 41 38 39 39 36 43 44 43 44 45 46 54 57 63 67
35 35 35 35 35 36 37 39 41 41 42 46 45 45 46 45 46 49 53 53 53 56 59 61 64 64 67
35 36 37 38 38 40 40 42 43 46 48 51 51 51 52 52 52 59 62 64 65 65 63 58 59 64 67
38 41 43 44 44 44 46 47 48 50 53 56 57 58 58 63 67 68 69 67 67 62 61 64 67 72 76
42 43 47 52 51 53 54 57 57 56 58 60 64 65 67 67 69 73 69 70 65 64 66 72 81 76 84
49 53 56 55 59 63 64 63 62 62 61 63 64 64 66 70 67 72 69 73 73 72 78 84 77 76 83
57 63 62 66 69 68 68 71 70 69 67 66 65 66 65 66 65 71 74 77 77 81 91 88 77 78 88

GFSFLT2_prec_cthk_138.txt.gz
RH
69 67 66 67 75 76 89 94 94 94 93 97 85 78 65 54 43 29 25 24 20 15 16 18 19 19 19
63 67 76 79 83 84 92 95 95 88 85 69 63 46 35 27 26 24 19 18 19 19 20 20 21 21 21
68 78 87 82 87 84 84 88 67 56 44 32 26 31 32 32 31 30 25 22 22 23 23 22 21 22 22
84 82 69 50 43 39 37 34 28 29 31 28 28 29 28 29 27 25 25 25 25 25 25 24 23 22 21
53 44 38 33 27 24 19 17 20 25 27 27 28 27 27 28 28 28 28 28 28 31 30 28 25 23 22
34 18 13 13 15 16 18 20 22 24 24 26 25 26 26 27 28 28 27 29 31 30 28 27 25 23 22
13 15 17 18 19 20 21 23 25 26 26 26 27 26 26 26 27 26 28 32 32 31 29 30 28 25 23
18 19 20 22 24 26 29 30 31 31 32 33 32 32 31 30 31 31 37 37 36 34 33 32 33 29 27
27 29 30 31 32 33 33 32 32 33 35 37 38 34 31 29 31 34 36 36 38 37 36 34 36 36 36
29 30 29 29 29 29 30 31 34 35 35 36 36 37 36 32 32 35 39 42 43 41 41 40 39 39 40
27 29 30 32 32 33 34 36 37 40 40 43 41 42 44 42 36 38 42 44 45 46 46 46 46 47 46
45 41 36 35 34 35 37 39 41 40 41 45 46 48 47 45 42 41 45 49 52 53 55 55 56 57 57
38 36 34 33 34 37 40 41 44 48 50 54 56 58 59 56 53 54 55 56 63 67 70 68 65 63 58
37 33 34 36 39 42 47 51 54 58 63 64 64 61 60 60 62 64 68 70 72 71 71 70 63 58 58
34 34 37 42 48 52 54 60 60 62 63 65 67 68 68 67 66 69 67 72 74 73 72 66 62 60 66
37 43 49 53 55 56 60 62 65 65 67 69 69 67 66 68 66 66 65 68 71 72 73 71 67 73 79
50 52 57 59 58 60 59 63 65 67 68 68 66 62 61 62 62 63 63 68 73 75 76 77 83 81 90